Regional Weather Roundup
Issued by NWS

Home | Current Version | Previous Version | Graphics & Text | Print | Product List | Glossary On
Versions: 1 2 3 4 5 6 7 8 9 10 11 12 13 14 15 16 17 18 19 20 21 22 23 24 25 26 27 28 29 30 31 32 33 34 35 36 37 38 39 40 41 42 43 44 45 46 47 48 49 50
000
ASUS43 KDTX 230501
RWRMI
MICHIGAN HOURLY REGIONAL WEATHER ROUNDUP
NATIONAL WEATHER SERVICE DETROIT/PONTIAC MI
1200 AM EST SUN NOV 23 2014

NOTE: "FAIR" INDICATES FEW OR NO CLOUDS BELOW 12,000 FEET WITH NO
SIGNIFICANT WEATHER AND/OR OBSTRUCTION TO VISIBILITY.

MIZ047>049-052>055-059>063-066>070-074>076-081>083-230600-
SOUTHEAST LOWER MICHIGAN

CITY           SKY/WX    TMP DP  RH WIND       PRES   REMARKS
ADRIAN         CLOUDY    47  41  80 SW10      29.97S
ALMA           CLOUDY    43  42  99 S6        29.88S FOG
ANN ARBOR      CLOUDY    47  41  80 SW8       29.95S
BAD AXE        CLOUDY    45  45 100 SW6       29.90R FOG
DETROIT CITY   CLOUDY    49  41  74 SW8       29.95S
DETROIT        CLOUDY    48  42  80 SW13      29.97R
FLINT          CLOUDY    48  44  86 S6        29.91S
GROSSE ILE     CLOUDY    48  43  81 SW10      29.95S
HILLSDALE      CLOUDY    50  44  79 SW8       29.94S
HOWELL         CLOUDY    48  45  88 SW10      29.91S

CITY           SKY/WX    TMP DP  RH WIND       PRES   REMARKS
JACKSON        CLOUDY    50  44  80 SW14      29.93S
LAMBERTVILLE   CLOUDY    52  39  62 S7        29.97F
LANSING        CLOUDY    49  44  83 SW14      29.90F
LAPEER         CLOUDY    46  43  91 SW8       29.91R
MASON          CLOUDY    50  45  81 SW8       29.91S
MONROE         CLOUDY    50  41  71 SW8       29.95S
MT. CLEMENS    CLOUDY    48  45  90 SW9       29.93R
PONTIAC        CLOUDY    47  42  83 SW9       29.92R
PORT HOPE        N/A     46  43  89 SW5       29.87R
PORT HURON     MOCLDY    41  41 100 S6        29.94R FOG
TRI CITIES     CLOUDY    46  43  89 SW10      29.89R
SAGINAW HB     CLOUDY    45  45 100 SW7       29.88R
$$
MIZ043>046-050>051-056>058-064>065-071>073-077>080-230600-
SOUTHWEST LOWER MICHIGAN

CITY           SKY/WX    TMP DP  RH WIND       PRES   REMARKS
BATTLE CREEK   CLOUDY    51  44  77 SW13      29.91S
BENTON HARBOR  CLOUDY    51  46  83 S8        29.88F
BIG RAPIDS     FOG       41  41 100 CALM      29.85R VSB<1/4
COLDWATER      CLOUDY    51  45  80 SW8       29.93S
FREMONT        CLOUDY    42  42  97 SW7       29.85S FOG
HOLLAND        CLOUDY    53  46  77 SW18G33   29.87S
GRAND RAPIDS   CLOUDY    45  42  89 S9        29.88S
IONIA          CLOUDY    45  43  95 SW7       29.88R
KALAMAZOO      CLOUDY    48  43  82 SW12      29.90F
LUDINGTON      CLOUDY    47  46  95 S5        29.82F FOG
MARSHALL       CLOUDY    48  43  81 SW10G16   29.91S
MOUNT PLEASANT CLOUDY    45  44  97 SW7       29.87R FOG
MUSKEGON       CLOUDY    49  44  83 S13       29.86R
SOUTH HAVEN    CLOUDY    53  47  82 SW9       29.88S
$$
MIZ016>042-230600-
NORTHERN LOWER MICHIGAN

CITY           SKY/WX    TMP DP  RH WIND       PRES   REMARKS
ALPENA         CLOUDY    38  38 100 S5        29.84R FOG     WCI  34
BEAVER ISLAND  CLOUDY    41  39  95 SW6       29.79R FOG
BELLAIRE       CLOUDY    40  39  96 S3        29.82S FOG
CADILLAC       FOG       38  38 100 SW6       29.82R VSB 1/4 WCI  34
CHARLEVOIX     CLOUDY    40  40 100 S5        29.83S FOG
FRANKFORT      CLOUDY    43  42  96 S5        29.80F FOG
GAYLORD        CLOUDY    37  37 100 SW9       29.80R FOG     WCI  30
GRAYLING       CLOUDY    38  38 100 CALM      29.83S FOG
HARBOR SPRINGS FOG       39  39  99 S6        29.80S VSB 1   WCI  35
HOUGHTON LAKE  CLOUDY    39  39 100 SW5       29.84R FOG
MANISTEE       CLOUDY    41  37  87 E5        29.82F VSB 1
OSCODA         FOG       39  39 100 CALM      29.87R VSB 1/4
PELLSTON       CLOUDY    39  38  96 SE6       29.80S FOG     WCI  35
ROGERS CITY    CLOUDY    38  38 100 S5        29.83R FOG     WCI  34
TRAVERSE CITY  MOCLDY    41  38  89 SW5       29.81S
$$
MIZ007>008-015-230600-
EASTERN UPPER MICHIGAN

CITY           SKY/WX    TMP DP  RH WIND       PRES   REMARKS
KINROSS        CLOUDY    36  36 100 CALM      29.79R
MACKINAC ISLAN CLOUDY    38  38  99 W3        29.79S FOG
NEWBERRY       CLOUDY    34  32  95 S10       29.76F FOG     WCI  26
S. S. MARIE    CLOUDY    35  31  85 SW5       29.79S WCI  31
MUNISING         N/A     32  29  88 S5        29.75R WCI  27
$$
MIZ004>006-011>014-085-230600-
CENTRAL UPPER MICHIGAN

CITY           SKY/WX    TMP DP  RH WIND       PRES   REMARKS
MANISTIQUE     CLOUDY    37  35  93 SW7       29.76S FOG     WCI  31
ESCANABA       CLOUDY    37  34  87 SW7       29.75S WCI  32
MENOMINEE      CLOUDY    37  36  93 CALM      29.74F VSB 3/4
SAWYER-GWINN   CLOUDY    33  31  92 SW8       29.71S WCI  26
$$
MIZ001>003-009>011-084-230600-
WESTERN UPPER MICHIGAN

CITY           SKY/WX    TMP DP  RH WIND       PRES   REMARKS
IRON MOUNTAIN  CLOUDY    35  33  92 S6        29.70F FOG     WCI  30
HOUGHTON       CLOUDY    34  30  85 SE12      29.66F WCI  25
COPPER HARBOR    N/A     37  32  82 CALM      29.69R
IRONWOOD       CLOUDY    36  34  93 SE12      29.58F WCI  27
$$

ABBREVIATIONS USED IN REMARKS
   TC - TEMPERATURE IN CELSIUS
  WCI - WIND CHILL INDEX
   HX - HEAT INDEX
  VSB - VISIBILITY




USA.gov is the U.S. government's official web portal to all federal, state and local government web resources and services.